20060214,000018,869710,32.440500,-123.093800,NaN,14.840,32.950,40.510,  NaN,NaN,0.176, NaN, NaN,16.100, NaN,   NaN,15.30,1018.49,90.40,NaN,303.0,NaN,7.3,NaN,332.0,NaN,14.2,NaN,NaN,0.176,NaN,60.0,NaN,NaN,NaN,2,9.9,000015,   NaN,60.9,     NaN,      NaN,NaN,10.7,NaN, NaN,0.171,NaN,NaN, NaN, NaN
20060214,000048,869740,32.441200,-123.092300,NaN,14.850,32.950,40.520,  NaN,NaN,0.183, NaN, NaN,16.200, NaN,   NaN,15.40,1018.34,90.30,NaN,322.0,NaN,5.7,NaN,338.6,NaN,11.1,NaN,NaN,0.183,NaN,60.0,NaN,NaN,NaN,2,9.8,000045,   NaN,60.8,     NaN,      NaN,NaN,11.1,NaN, NaN,0.172,NaN,NaN, NaN, NaN
20060214,000118,869770,32.441700,-123.091000,NaN,14.860,32.950,40.530,  NaN,NaN,0.194, NaN, NaN,16.200, NaN,   NaN,15.40,1018.41,90.30,NaN,306.0,NaN,7.1,NaN,327.9,NaN,13.9,NaN,NaN,0.194,NaN,61.0,NaN,NaN,NaN,2,10.1,000115,   NaN,59.4,     NaN,      NaN,NaN,11.0,NaN, NaN,0.277,NaN,NaN, NaN, NaN
20060214,000148,869800,32.442500,-123.089500,NaN,14.870,32.960,40.540,  NaN,NaN,0.194, NaN, NaN,16.200, NaN,   NaN,15.30,1018.30,90.30,NaN,311.0,NaN,6.2,NaN,339.6,NaN,12.1,NaN,NaN,0.194,NaN,59.0,NaN,NaN,NaN,2,9.7,000145,   NaN,58.7,     NaN,      NaN,NaN,10.8,NaN, NaN,0.177,NaN,NaN, NaN, NaN
20060214,000218,869830,32.443200,-123.088200,NaN,14.870,32.960,40.540,  NaN,NaN,0.183, NaN, NaN,16.200, NaN,   NaN,15.40,1018.51,90.30,NaN,304.0,NaN,6.7,NaN,319.7,NaN,13.0,NaN,NaN,0.183,NaN,63.0,NaN,NaN,NaN,2,9.9,000215,   NaN,59.0,     NaN,      NaN,NaN,11.2,NaN, NaN,0.171,NaN,NaN, NaN, NaN
20060214,000248,869860,32.443800,-123.086700,NaN,14.870,32.960,40.550,  NaN,NaN,0.192, NaN, NaN,16.200, NaN,   NaN,15.40,1018.61,90.40,NaN,304.0,NaN,6.8,NaN,320.6,NaN,13.3,NaN,NaN,0.192,NaN,61.0,NaN,NaN,NaN,2,9.6,000245,   NaN,61.4,     NaN,      NaN,NaN,11.4,NaN, NaN,0.171,NaN,NaN, NaN, NaN
20060214,000318,869890,32.444500,-123.085300,NaN,14.870,32.960,40.550,  NaN,NaN,0.374, NaN, NaN,16.200, NaN,   NaN,15.30,1018.52,90.40,NaN,299.0,NaN,6.2,NaN,321.4,NaN,12.0,NaN,NaN,0.374,NaN,61.0,NaN,NaN,NaN,2,10.0,000315,   NaN,59.8,     NaN,      NaN,NaN,11.0,NaN, NaN,4.152,NaN,NaN, NaN, NaN
20060214,000348,869920,32.445200,-123.084000,NaN,14.880,32.960,40.560,  NaN,NaN,0.327, NaN, NaN,16.200, NaN,   NaN,15.30,1018.39,90.40,NaN,309.0,NaN,6.4,NaN,330.7,NaN,12.4,NaN,NaN,0.327,NaN,62.0,NaN,NaN,NaN,2,9.8,000345,   NaN,61.0,     NaN,      NaN,NaN,11.0,NaN, NaN,3.468,NaN,NaN, NaN, NaN
20060214,000418,869950,32.445700,-123.082500,NaN,14.890,32.960,40.560,  NaN,NaN,0.197, NaN, NaN,16.200, NaN,   NaN,15.40,1018.46,90.60,NaN,300.0,NaN,6.6,NaN,322.0,NaN,12.9,NaN,NaN,0.197,NaN,63.0,NaN,NaN,NaN,2,9.9,000415,   NaN,61.2,     NaN,      NaN,NaN,11.2,NaN, NaN,0.297,NaN,NaN, NaN, NaN
20060214,000448,869980,32.446300,-123.081200,NaN,14.890,32.960,40.570,  NaN,NaN,0.199, NaN, NaN,16.200, NaN,   NaN,15.40,1018.45,90.30,NaN,301.0,NaN,6.7,NaN,328.8,NaN,12.9,NaN,NaN,0.199,NaN,63.0,NaN,NaN,NaN,2,9.8,000445,   NaN,59.4,     NaN,      NaN,NaN,11.2,NaN, NaN,0.249,NaN,NaN, NaN, NaN
20060214,000518,870010,32.447000,-123.079700,NaN,14.890,32.960,40.570,  NaN,NaN,0.202, NaN, NaN,16.200, NaN,   NaN,15.40,1018.17,90.60,NaN,306.0,NaN,6.0,NaN,317.4,NaN,11.7,NaN,NaN,0.202,NaN,62.0,NaN,NaN,NaN,2,9.7,000515,   NaN,59.0,     NaN,      NaN,NaN,10.3,NaN, NaN,0.351,NaN,NaN, NaN, NaN
20060214,000548,870040,32.447700,-123.078300,NaN,14.890,32.960,40.580,  NaN,NaN,0.403, NaN, NaN,16.200, NaN,   NaN,15.40,1018.40,90.60,NaN,292.0,NaN,7.4,NaN,321.2,NaN,14.3,NaN,NaN,0.403,NaN,64.0,NaN,NaN,NaN,2,9.8,000545,   NaN,62.2,     NaN,      NaN,NaN,10.7,NaN, NaN,6.287,NaN,NaN, NaN, NaN
20060214,000618,870070,32.448300,-123.076800,NaN,14.910,32.960,40.590,  NaN,NaN,0.194, NaN, NaN,16.200, NaN,   NaN,15.40,1018.32,90.70,NaN,304.0,NaN,6.6,NaN,321.0,NaN,12.8,NaN,NaN,0.194,NaN,64.0,NaN,NaN,NaN,2,9.7,000615,   NaN,60.5,     NaN,      NaN,NaN,10.8,NaN, NaN,0.242,NaN,NaN, NaN, NaN
20060214,000648,870100,32.449000,-123.075500,NaN,14.910,32.960,40.590,  NaN,NaN,0.198, NaN, NaN,16.200, NaN,   NaN,15.40,1018.22,90.40,NaN,309.0,NaN,5.9,NaN,326.3,NaN,11.5,NaN,NaN,0.198,NaN,60.0,NaN,NaN,NaN,2,9.8,000645,   NaN,58.7,     NaN,      NaN,NaN,10.5,NaN, NaN,0.425,NaN,NaN, NaN, NaN
20060214,000718,870130,32.449700,-123.074000,NaN,14.920,32.960,40.600,  NaN,NaN,0.199, NaN, NaN,16.200, NaN,   NaN,15.40,1018.34,90.40,NaN,303.0,NaN,6.9,NaN,321.7,NaN,13.5,NaN,NaN,0.199,NaN,64.0,NaN,NaN,NaN,2,9.7,000715,   NaN,58.6,     NaN,      NaN,NaN,11.4,NaN, NaN,0.320,NaN,NaN, NaN, NaN
20060214,000748,870160,32.450300,-123.072700,NaN,14.930,32.960,40.600,  NaN,NaN,0.186, NaN, NaN,16.300, NaN,   NaN,15.40,1018.22,90.70,NaN,297.0,NaN,6.7,NaN,323.1,NaN,13.0,NaN,NaN,0.186,NaN,61.0,NaN,NaN,NaN,2,9.9,000745,   NaN,60.3,     NaN,      NaN,NaN,10.9,NaN, NaN,0.196,NaN,NaN, NaN, NaN
20060214,000818,870190,32.451000,-123.071300,NaN,14.920,32.970,40.610,  NaN,NaN,0.190, NaN, NaN,16.300, NaN,   NaN,15.40,1018.37,90.60,NaN,314.0,NaN,8.1,NaN,328.5,NaN,15.7,NaN,NaN,0.190,NaN,58.0,NaN,NaN,NaN,2,9.7,000815,   NaN,61.0,     NaN,      NaN,NaN,11.0,NaN, NaN,0.174,NaN,NaN, NaN, NaN
20060214,000848,870220,32.451700,-123.069800,NaN,14.930,32.960,40.610,  NaN,NaN,0.186, NaN, NaN,16.200, NaN,   NaN,15.40,1018.24,90.60,NaN,304.0,NaN,5.6,NaN,321.7,NaN,10.8,NaN,NaN,0.186,NaN,66.0,NaN,NaN,NaN,2,9.9,000845,   NaN,61.9,     NaN,      NaN,NaN,10.9,NaN, NaN,0.177,NaN,NaN, NaN, NaN
20060214,000918,870250,32.452200,-123.068500,NaN,14.930,32.960,40.610,  NaN,NaN,0.676, NaN, NaN,16.000, NaN,   NaN,15.40,1018.46,90.60,NaN,303.0,NaN,7.7,NaN,321.7,NaN,15.0,NaN,NaN,0.676,NaN,62.0,NaN,NaN,NaN,2,9.9,000915,   NaN,61.1,     NaN,      NaN,NaN,10.9,NaN, NaN,13.610,NaN,NaN, NaN, NaN
20060214,000948,870280,32.452800,-123.067000,NaN,14.930,32.960,40.610,  NaN,NaN,0.184, NaN, NaN,16.200, NaN,   NaN,15.40,1018.29,90.40,NaN,305.0,NaN,6.6,NaN,319.3,NaN,12.9,NaN,NaN,0.184,NaN,64.0,NaN,NaN,NaN,2,10.1,000945,   NaN,59.1,     NaN,      NaN,NaN,10.9,NaN, NaN,0.288,NaN,NaN, NaN, NaN
20060214,001018,870310,32.453500,-123.065700,NaN,14.930,32.970,40.610,  NaN,NaN,0.197, NaN, NaN,16.200, NaN,   NaN,15.40,1018.19,90.60,NaN,307.0,NaN,5.6,NaN,328.8,NaN,10.8,NaN,NaN,0.197,NaN,62.0,NaN,NaN,NaN,2,9.5,001015,   NaN,59.1,     NaN,      NaN,NaN,11.1,NaN, NaN,0.943,NaN,NaN, NaN, NaN
20060214,001048,870340,32.454200,-123.064200,NaN,14.930,32.960,40.610,  NaN,NaN,0.184, NaN, NaN,16.200, NaN,   NaN,15.40,1018.26,90.40,NaN,303.0,NaN,7.3,NaN,326.5,NaN,14.2,NaN,NaN,0.184,NaN,59.0,NaN,NaN,NaN,2,9.7,001045,   NaN,59.0,     NaN,      NaN,NaN,10.8,NaN, NaN,0.277,NaN,NaN, NaN, NaN
20060214,001118,870370,32.454800,-123.062800,NaN,14.930,32.960,40.610,  NaN,NaN,0.190, NaN, NaN,16.300, NaN,   NaN,15.40,1018.19,90.60,NaN,304.0,NaN,5.7,NaN,325.1,NaN,11.2,NaN,NaN,0.190,NaN,65.0,NaN,NaN,NaN,2,9.8,001115,   NaN,61.1,     NaN,      NaN,NaN,10.6,NaN, NaN,0.391,NaN,NaN, NaN, NaN
20060214,001148,870400,32.455500,-123.061300,NaN,14.940,32.960,40.620,  NaN,NaN,0.190, NaN, NaN,16.200, NaN,   NaN,15.40,1018.19,90.60,NaN,303.0,NaN,6.0,NaN,329.0,NaN,11.6,NaN,NaN,0.190,NaN,63.0,NaN,NaN,NaN,2,9.9,001145,   NaN,59.9,     NaN,      NaN,NaN,11.1,NaN, NaN,0.273,NaN,NaN, NaN, NaN
20060214,001218,870430,32.456200,-123.060000,NaN,14.940,32.960,40.620,  NaN,NaN,0.190, NaN, NaN,16.300, NaN,   NaN,15.40,1018.06,90.60,NaN,316.0,NaN,5.9,NaN,332.5,NaN,11.4,NaN,NaN,0.190,NaN,60.0,NaN,NaN,NaN,2,9.8,001215,   NaN,58.2,     NaN,      NaN,NaN,10.4,NaN, NaN,0.171,NaN,NaN, NaN, NaN
20060214,001248,870460,32.456800,-123.058500,NaN,14.940,32.960,40.620,  NaN,NaN,0.196, NaN, NaN,16.300, NaN,   NaN,15.40,1018.07,90.60,NaN,311.0,NaN,5.9,NaN,331.4,NaN,11.5,NaN,NaN,0.196,NaN,62.0,NaN,NaN,NaN,2,9.5,001245,   NaN,58.3,     NaN,      NaN,NaN,11.4,NaN, NaN,0.549,NaN,NaN, NaN, NaN
20060214,001318,870490,32.457500,-123.057200,NaN,14.940,32.960,40.620,  NaN,NaN,0.183, NaN, NaN,16.300, NaN,   NaN,15.30,1018.39,90.60,NaN,302.0,NaN,7.2,NaN,317.1,NaN,14.1,NaN,NaN,0.183,NaN,62.0,NaN,NaN,NaN,2,10.0,001315,   NaN,60.9,     NaN,      NaN,NaN,10.6,NaN, NaN,0.172,NaN,NaN, NaN, NaN
20060214,001348,870520,32.458000,-123.055800,NaN,14.940,32.960,40.620,  NaN,NaN,0.185, NaN, NaN,16.200, NaN,   NaN,15.40,1018.17,90.80,NaN,309.0,NaN,6.5,NaN,328.0,NaN,12.6,NaN,NaN,0.185,NaN,62.0,NaN,NaN,NaN,2,9.5,001345,   NaN,59.3,     NaN,      NaN,NaN,10.6,NaN, NaN,0.229,NaN,NaN, NaN, NaN
20060214,001418,870550,32.458700,-123.054300,NaN,14.940,32.960,40.620,  NaN,NaN,0.181, NaN, NaN,16.200, NaN,   NaN,15.40,1018.13,90.70,NaN,324.0,NaN,5.6,NaN,338.8,NaN,11.0,NaN,NaN,0.181,NaN,58.0,NaN,NaN,NaN,2,9.6,001415,   NaN,59.9,     NaN,      NaN,NaN,11.3,NaN, NaN,0.218,NaN,NaN, NaN, NaN
20060214,001448,870580,32.459300,-123.053000,NaN,14.940,32.960,40.620,  NaN,NaN,0.597, NaN, NaN,16.000, NaN,   NaN,15.30,1018.10,90.70,NaN,316.0,NaN,5.6,NaN,337.5,NaN,10.8,NaN,NaN,0.597,NaN,62.0,NaN,NaN,NaN,2,9.5,001445,   NaN,60.6,     NaN,      NaN,NaN,11.4,NaN, NaN,10.450,NaN,NaN, NaN, NaN
20060214,001518,870610,32.460000,-123.051500,NaN,14.950,32.960,40.620,  NaN,NaN,0.176, NaN, NaN,16.200, NaN,   NaN,15.30,1018.32,90.80,NaN,303.0,NaN,5.1,NaN,324.6,NaN,9.9,NaN,NaN,0.176,NaN,62.0,NaN,NaN,NaN,2,9.7,001515,   NaN,59.3,     NaN,      NaN,NaN,10.7,NaN, NaN,0.181,NaN,NaN, NaN, NaN
20060214,001548,870640,32.460500,-123.050200,NaN,14.950,32.960,40.620,  NaN,NaN,0.194, NaN, NaN,16.200, NaN,   NaN,15.30,1018.22,90.80,NaN,304.0,NaN,6.1,NaN,332.3,NaN,11.9,NaN,NaN,0.194,NaN,61.0,NaN,NaN,NaN,2,9.7,001545,   NaN,58.9,     NaN,      NaN,NaN,10.4,NaN, NaN,0.339,NaN,NaN, NaN, NaN
20060214,001618,870670,32.461200,-123.048700,NaN,14.950,32.960,40.620,  NaN,NaN,0.186, NaN, NaN,16.300, NaN,   NaN,15.30,1018.24,90.80,NaN,305.0,NaN,7.2,NaN,327.8,NaN,14.0,NaN,NaN,0.186,NaN,59.0,NaN,NaN,NaN,2,9.9,001615,   NaN,60.0,     NaN,      NaN,NaN,11.3,NaN, NaN,0.468,NaN,NaN, NaN, NaN
20060214,001648,870700,32.461800,-123.047300,NaN,14.950,32.960,40.620,  NaN,NaN,0.189, NaN, NaN,16.300, NaN,   NaN,15.30,1018.17,90.80,NaN,307.0,NaN,5.8,NaN,328.2,NaN,11.3,NaN,NaN,0.189,NaN,60.0,NaN,NaN,NaN,2,9.7,001645,   NaN,59.4,     NaN,      NaN,NaN,10.9,NaN, NaN,0.228,NaN,NaN, NaN, NaN
20060214,001718,870730,32.462500,-123.046000,NaN,14.950,32.960,40.630,  NaN,NaN,0.186, NaN, NaN,16.200, NaN,   NaN,15.30,1018.23,90.80,NaN,307.0,NaN,5.6,NaN,325.0,NaN,10.9,NaN,NaN,0.186,NaN,64.0,NaN,NaN,NaN,2,9.6,001715,   NaN,60.8,     NaN,      NaN,NaN,11.2,NaN, NaN,0.178,NaN,NaN, NaN, NaN
20060214,001748,870760,32.463200,-123.044500,NaN,14.950,32.960,40.620,  NaN,NaN,0.184, NaN, NaN,16.300, NaN,   NaN,15.30,1018.27,90.80,NaN,308.0,NaN,5.7,NaN,330.0,NaN,11.2,NaN,NaN,0.184,NaN,62.0,NaN,NaN,NaN,2,9.9,001745,   NaN,59.5,     NaN,      NaN,NaN,10.9,NaN, NaN,0.170,NaN,NaN, NaN, NaN
20060214,001818,870790,32.463800,-123.043200,NaN,14.950,32.960,40.620,  NaN,NaN,0.181, NaN, NaN,16.300, NaN,   NaN,15.30,1018.16,90.80,NaN,305.0,NaN,6.3,NaN,325.1,NaN,12.2,NaN,NaN,0.181,NaN,64.0,NaN,NaN,NaN,2,9.8,001815,   NaN,60.0,     NaN,      NaN,NaN,11.0,NaN, NaN,0.186,NaN,NaN, NaN, NaN
20060214,001848,870820,32.464500,-123.041700,NaN,14.960,32.960,40.630,  NaN,NaN,0.192, NaN, NaN,16.300, NaN,   NaN,15.30,1018.10,90.90,NaN,301.0,NaN,6.9,NaN,323.4,NaN,13.3,NaN,NaN,0.192,NaN,63.0,NaN,NaN,NaN,2,9.8,001845,   NaN,59.8,     NaN,      NaN,NaN,10.5,NaN, NaN,0.530,NaN,NaN, NaN, NaN
20060214,001918,870850,32.465000,-123.040300,NaN,14.960,32.960,40.630,  NaN,NaN,0.191, NaN, NaN,16.300, NaN,   NaN,15.30,1018.15,90.80,NaN,313.0,NaN,6.7,NaN,333.4,NaN,13.1,NaN,NaN,0.191,NaN,59.0,NaN,NaN,NaN,2,9.7,001915,   NaN,59.7,     NaN,      NaN,NaN,10.9,NaN, NaN,0.180,NaN,NaN, NaN, NaN
20060214,001948,870880,32.465700,-123.038800,NaN,14.960,32.960,40.630,  NaN,NaN,0.185, NaN, NaN,16.200, NaN,   NaN,15.30,1018.21,90.70,NaN,308.0,NaN,6.9,NaN,322.5,NaN,13.3,NaN,NaN,0.185,NaN,61.0,NaN,NaN,NaN,2,9.7,001945,   NaN,60.1,     NaN,      NaN,NaN,10.9,NaN, NaN,0.201,NaN,NaN, NaN, NaN
20060214,002018,870910,32.466300,-123.037500,NaN,14.960,32.960,40.640,  NaN,NaN,0.187, NaN, NaN,16.300, NaN,   NaN,15.30,1018.23,90.90,NaN,303.0,NaN,5.6,NaN,329.7,NaN,10.9,NaN,NaN,0.187,NaN,64.0,NaN,NaN,NaN,2,10.0,002015,   NaN,60.9,     NaN,      NaN,NaN,10.9,NaN, NaN,0.169,NaN,NaN, NaN, NaN
20060214,002048,870940,32.467000,-123.036000,NaN,14.960,32.960,40.630,  NaN,NaN,0.182, NaN, NaN,16.300, NaN,   NaN,15.30,1018.25,90.80,NaN,305.0,NaN,6.1,NaN,322.6,NaN,11.8,NaN,NaN,0.182,NaN,62.0,NaN,NaN,NaN,2,10.1,002045,   NaN,60.5,     NaN,      NaN,NaN,10.6,NaN, NaN,0.184,NaN,NaN, NaN, NaN
20060214,002118,870970,32.467700,-123.034700,NaN,14.960,32.960,40.640,  NaN,NaN,0.184, NaN, NaN,16.300, NaN,   NaN,15.30,1018.27,91.10,NaN,312.0,NaN,6.3,NaN,327.5,NaN,12.2,NaN,NaN,0.184,NaN,61.0,NaN,NaN,NaN,2,9.8,002115,   NaN,61.8,     NaN,      NaN,NaN,11.1,NaN, NaN,0.170,NaN,NaN, NaN, NaN
20060214,002148,871000,32.468200,-123.033200,NaN,14.970,32.960,40.640,  NaN,NaN,0.184, NaN, NaN,16.300, NaN,   NaN,15.30,1018.14,90.90,NaN,306.0,NaN,5.1,NaN,321.5,NaN,9.9,NaN,NaN,0.184,NaN,67.0,NaN,NaN,NaN,2,9.9,002145,   NaN,61.3,     NaN,      NaN,NaN,10.7,NaN, NaN,0.283,NaN,NaN, NaN, NaN
20060214,002218,871030,32.468800,-123.031800,NaN,14.960,32.960,40.640,  NaN,NaN,0.200, NaN, NaN,16.300, NaN,   NaN,15.30,1018.09,90.90,NaN,306.0,NaN,6.9,NaN,324.3,NaN,13.4,NaN,NaN,0.200,NaN,61.0,NaN,NaN,NaN,2,9.7,002215,   NaN,58.5,     NaN,      NaN,NaN,10.7,NaN, NaN,0.432,NaN,NaN, NaN, NaN
20060214,002248,871060,32.469500,-123.030300,NaN,14.970,32.960,40.640,  NaN,NaN,0.188, NaN, NaN,16.300, NaN,   NaN,15.30,1018.34,91.10,NaN,303.0,NaN,6.5,NaN,328.9,NaN,12.6,NaN,NaN,0.188,NaN,61.0,NaN,NaN,NaN,2,9.6,002245,   NaN,59.0,     NaN,      NaN,NaN,10.7,NaN, NaN,0.178,NaN,NaN, NaN, NaN
20060214,002318,871090,32.470200,-123.029000,NaN,14.960,32.970,40.640,  NaN,NaN,0.197, NaN, NaN,16.300, NaN,   NaN,15.30,1018.23,90.90,NaN,301.0,NaN,6.7,NaN,330.2,NaN,12.9,NaN,NaN,0.197,NaN,62.0,NaN,NaN,NaN,2,9.9,002315,   NaN,61.0,     NaN,      NaN,NaN,11.2,NaN, NaN,0.379,NaN,NaN, NaN, NaN
20060214,002348,871120,32.470800,-123.027500,NaN,14.960,32.960,40.640,  NaN,NaN,0.187, NaN, NaN,16.300, NaN,   NaN,15.30,1018.21,91.10,NaN,299.0,NaN,8.2,NaN,323.6,NaN,15.9,NaN,NaN,0.187,NaN,62.0,NaN,NaN,NaN,2,10.0,002345,   NaN,61.2,     NaN,      NaN,NaN,11.2,NaN, NaN,0.169,NaN,NaN, NaN, NaN
20060214,002418,871150,32.471500,-123.026000,NaN,14.960,32.960,40.640,  NaN,NaN,0.190, NaN, NaN,16.300, NaN,   NaN,15.30,1018.21,90.90,NaN,294.0,NaN,6.3,NaN,310.5,NaN,12.2,NaN,NaN,0.190,NaN,65.0,NaN,NaN,NaN,2,10.1,002415,   NaN,62.0,     NaN,      NaN,NaN,11.0,NaN, NaN,0.179,NaN,NaN, NaN, NaN
20060214,002448,871180,32.472000,-123.024700,NaN,14.960,32.970,40.640,  NaN,NaN,0.193, NaN, NaN,16.300, NaN,   NaN,15.30,1018.05,91.10,NaN,302.0,NaN,5.3,NaN,326.5,NaN,10.4,NaN,NaN,0.193,NaN,63.0,NaN,NaN,NaN,2,9.9,002445,   NaN,59.4,     NaN,      NaN,NaN,10.6,NaN, NaN,0.178,NaN,NaN, NaN, NaN
20060214,002518,871210,32.472700,-123.023200,NaN,14.960,32.960,40.630,  NaN,NaN,0.199, NaN, NaN,16.300, NaN,   NaN,15.30,1018.27,90.90,NaN,300.0,NaN,7.5,NaN,319.9,NaN,14.5,NaN,NaN,0.199,NaN,63.0,NaN,NaN,NaN,2,10.0,002515,   NaN,59.4,     NaN,      NaN,NaN,10.6,NaN, NaN,0.172,NaN,NaN, NaN, NaN
20060214,002548,871240,32.473300,-123.021800,NaN,14.950,32.970,40.620,  NaN,NaN,0.198, NaN, NaN,16.300, NaN,   NaN,15.30,1018.11,90.90,NaN,306.0,NaN,6.5,NaN,329.2,NaN,12.6,NaN,NaN,0.198,NaN,63.0,NaN,NaN,NaN,2,9.7,002545,   NaN,59.3,     NaN,      NaN,NaN,11.4,NaN, NaN,0.169,NaN,NaN, NaN, NaN
20060214,002618,871270,32.474000,-123.020300,NaN,14.940,32.970,40.620,  NaN,NaN,0.193, NaN, NaN,16.300, NaN,   NaN,15.30,1018.22,91.10,NaN,307.0,NaN,6.5,NaN,324.3,NaN,12.7,NaN,NaN,0.193,NaN,62.0,NaN,NaN,NaN,2,9.9,002615,   NaN,59.4,     NaN,      NaN,NaN,10.5,NaN, NaN,0.189,NaN,NaN, NaN, NaN
20060214,002648,871300,32.474700,-123.019000,NaN,14.950,32.960,40.620,  NaN,NaN,0.196, NaN, NaN,16.200, NaN,   NaN,15.30,1018.03,90.90,NaN,305.0,NaN,6.2,NaN,324.4,NaN,12.0,NaN,NaN,0.196,NaN,65.0,NaN,NaN,NaN,2,10.0,002645,   NaN,60.6,     NaN,      NaN,NaN,11.1,NaN, NaN,0.183,NaN,NaN, NaN, NaN
20060214,002718,871330,32.475200,-123.017500,NaN,14.950,32.960,40.620,  NaN,NaN,0.202, NaN, NaN,16.200, NaN,   NaN,15.30,1018.04,91.10,NaN,312.0,NaN,5.9,NaN,334.3,NaN,11.5,NaN,NaN,0.202,NaN,62.0,NaN,NaN,NaN,2,9.8,002715,   NaN,61.2,     NaN,      NaN,NaN,11.0,NaN, NaN,0.223,NaN,NaN, NaN, NaN
20060214,002748,871360,32.475800,-123.016200,NaN,14.950,32.960,40.620,  NaN,NaN,0.976, NaN, NaN,16.000, NaN,   NaN,15.30,1018.14,91.20,NaN,311.0,NaN,5.2,NaN,326.0,NaN,10.1,NaN,NaN,0.976,NaN,66.0,NaN,NaN,NaN,2,9.6,002745,   NaN,59.3,     NaN,      NaN,NaN,10.6,NaN, NaN,26.770,NaN,NaN, NaN, NaN
20060214,002818,871390,32.476500,-123.014700,NaN,14.950,32.960,40.620,  NaN,NaN,0.212, NaN, NaN,16.300, NaN,   NaN,15.30,1018.06,91.10,NaN,309.0,NaN,4.6,NaN,326.6,NaN,9.0,NaN,NaN,0.212,NaN,64.0,NaN,NaN,NaN,2,9.5,002815,   NaN,57.5,     NaN,      NaN,NaN,11.4,NaN, NaN,0.400,NaN,NaN, NaN, NaN
20060214,002848,871420,32.477000,-123.013300,NaN,14.950,32.960,40.620,  NaN,NaN,0.194, NaN, NaN,16.300, NaN,   NaN,15.30,1017.93,91.20,NaN,311.0,NaN,4.9,NaN,335.7,NaN,9.6,NaN,NaN,0.194,NaN,61.0,NaN,NaN,NaN,2,9.6,002845,   NaN,57.6,     NaN,      NaN,NaN,11.4,NaN, NaN,0.191,NaN,NaN, NaN, NaN
20060214,002918,871450,32.477700,-123.012000,NaN,14.950,32.960,40.620,  NaN,NaN,0.199, NaN, NaN,16.200, NaN,   NaN,15.30,1018.18,91.20,NaN,306.0,NaN,7.5,NaN,325.6,NaN,14.5,NaN,NaN,0.199,NaN,59.0,NaN,NaN,NaN,2,9.8,002915,   NaN,59.8,     NaN,      NaN,NaN,10.7,NaN, NaN,0.190,NaN,NaN, NaN, NaN
20060214,002948,871480,32.478300,-123.010500,NaN,14.950,32.960,40.630,  NaN,NaN,0.201, NaN, NaN,16.200, NaN,   NaN,15.30,1018.06,91.20,NaN,301.0,NaN,5.3,NaN,320.4,NaN,10.3,NaN,NaN,0.201,NaN,68.0,NaN,NaN,NaN,2,10.0,002945,   NaN,62.6,     NaN,      NaN,NaN,11.5,NaN, NaN,0.181,NaN,NaN, NaN, NaN
20060214,003018,871510,32.479000,-123.009000,NaN,14.960,32.960,40.630,  NaN,NaN,0.206, NaN, NaN,16.300, NaN,   NaN,15.30,1017.88,91.20,NaN,312.0,NaN,6.2,NaN,329.8,NaN,12.0,NaN,NaN,0.206,NaN,65.0,NaN,NaN,NaN,2,9.8,003015,   NaN,60.1,     NaN,      NaN,NaN,11.2,NaN, NaN,0.327,NaN,NaN, NaN, NaN
20060214,003048,871540,32.479500,-123.007700,NaN,14.960,32.970,40.640,  NaN,NaN,1.383, NaN, NaN,16.000, NaN,   NaN,15.30,1018.09,90.90,NaN,302.0,NaN,5.1,NaN,320.4,NaN,9.9,NaN,NaN,1.383,NaN,66.0,NaN,NaN,NaN,2,9.7,003045,   NaN,60.9,     NaN,      NaN,NaN,10.6,NaN, NaN,40.710,NaN,NaN, NaN, NaN
20060214,003118,871570,32.480200,-123.006300,NaN,14.960,32.970,40.640,  NaN,NaN,0.209, NaN, NaN,16.200, NaN,   NaN,15.30,1018.11,90.90,NaN,305.0,NaN,7.5,NaN,321.8,NaN,14.6,NaN,NaN,0.209,NaN,59.0,NaN,NaN,NaN,2,9.5,003115,   NaN,58.7,     NaN,      NaN,NaN,10.9,NaN, NaN,0.513,NaN,NaN, NaN, NaN
20060214,003148,871600,32.480800,-123.005000,NaN,14.960,32.970,40.640,  NaN,NaN,0.198, NaN, NaN,16.300, NaN,   NaN,15.30,1018.02,90.90,NaN,311.0,NaN,5.7,NaN,327.0,NaN,11.1,NaN,NaN,0.198,NaN,59.0,NaN,NaN,NaN,2,9.5,003145,   NaN,56.3,     NaN,      NaN,NaN,10.4,NaN, NaN,0.187,NaN,NaN, NaN, NaN
20060214,003218,871630,32.481700,-123.003500,NaN,14.960,32.970,40.640,  NaN,NaN,0.207, NaN, NaN,16.300, NaN,   NaN,15.30,1017.90,91.10,NaN,309.0,NaN,5.8,NaN,330.4,NaN,11.3,NaN,NaN,0.207,NaN,61.0,NaN,NaN,NaN,2,9.8,003215,   NaN,56.9,     NaN,      NaN,NaN,11.2,NaN, NaN,0.187,NaN,NaN, NaN, NaN
20060214,003248,871660,32.482300,-123.002200,NaN,14.970,32.970,40.650,  NaN,NaN,0.199, NaN, NaN,16.300, NaN,   NaN,15.30,1017.76,91.30,NaN,311.0,NaN,5.7,NaN,323.7,NaN,11.1,NaN,NaN,0.199,NaN,60.0,NaN,NaN,NaN,2,9.7,003245,   NaN,55.5,     NaN,      NaN,NaN,11.0,NaN, NaN,0.180,NaN,NaN, NaN, NaN
20060214,003318,871690,32.483000,-123.000800,NaN,14.980,32.960,40.650,  NaN,NaN,0.211, NaN, NaN,16.300, NaN,   NaN,15.30,1018.07,91.20,NaN,306.0,NaN,6.4,NaN,323.2,NaN,12.5,NaN,NaN,0.211,NaN,58.0,NaN,NaN,NaN,2,9.7,003315,   NaN,58.1,     NaN,      NaN,NaN,10.8,NaN, NaN,0.178,NaN,NaN, NaN, NaN
20060214,003348,871720,32.483700,-122.999500,NaN,15.000,32.970,40.670,  NaN,NaN,0.205, NaN, NaN,16.300, NaN,   NaN,15.30,1018.01,91.30,NaN,309.0,NaN,6.5,NaN,325.8,NaN,12.6,NaN,NaN,0.205,NaN,62.0,NaN,NaN,NaN,2,9.9,003345,   NaN,57.4,     NaN,      NaN,NaN,10.5,NaN, NaN,0.330,NaN,NaN, NaN, NaN
20060214,003418,871750,32.484300,-122.998000,NaN,15.010,32.970,40.690,  NaN,NaN,0.201, NaN, NaN,16.300, NaN,   NaN,15.30,1017.84,91.20,NaN,309.0,NaN,6.0,NaN,336.2,NaN,11.6,NaN,NaN,0.201,NaN,60.0,NaN,NaN,NaN,2,9.7,003415,   NaN,55.9,     NaN,      NaN,NaN,10.5,NaN, NaN,0.170,NaN,NaN, NaN, NaN
20060214,003448,871780,32.485200,-122.996700,NaN,15.020,32.980,40.710,  NaN,NaN,0.198, NaN, NaN,16.300, NaN,   NaN,15.30,1017.92,91.20,NaN,310.0,NaN,7.2,NaN,334.7,NaN,14.0,NaN,NaN,0.198,NaN,56.0,NaN,NaN,NaN,2,9.9,003445,   NaN,57.0,     NaN,      NaN,NaN,11.0,NaN, NaN,0.227,NaN,NaN, NaN, NaN
20060214,003518,871810,32.485800,-122.995300,NaN,15.030,32.980,40.720,  NaN,NaN,0.187, NaN, NaN,16.400, NaN,   NaN,15.10,1017.93,91.20,NaN,304.0,NaN,6.4,NaN,333.2,NaN,12.4,NaN,NaN,0.187,NaN,58.0,NaN,NaN,NaN,2,9.7,003515,   NaN,58.4,     NaN,      NaN,NaN,10.9,NaN, NaN,0.258,NaN,NaN, NaN, NaN
20060214,003548,871840,32.486500,-122.994000,NaN,15.040,32.980,40.720,  NaN,NaN,0.192, NaN, NaN,16.300, NaN,   NaN,15.10,1017.97,91.30,NaN,303.0,NaN,7.0,NaN,323.5,NaN,13.6,NaN,NaN,0.192,NaN,59.0,NaN,NaN,NaN,2,9.9,003545,   NaN,58.0,     NaN,      NaN,NaN,11.2,NaN, NaN,0.342,NaN,NaN, NaN, NaN
20060214,003618,871870,32.487200,-122.992500,NaN,15.050,32.980,40.740,  NaN,NaN,0.199, NaN, NaN,16.400, NaN,   NaN,15.10,1018.08,91.60,NaN,314.0,NaN,5.3,NaN,332.3,NaN,10.3,NaN,NaN,0.199,NaN,59.0,NaN,NaN,NaN,2,9.6,003615,   NaN,56.3,     NaN,      NaN,NaN,10.9,NaN, NaN,0.464,NaN,NaN, NaN, NaN
20060214,003648,871900,32.488000,-122.991200,NaN,15.050,32.990,40.740,  NaN,NaN,0.192, NaN, NaN,16.400, NaN,   NaN,15.10,1018.00,91.60,NaN,303.0,NaN,5.8,NaN,320.5,NaN,11.3,NaN,NaN,0.192,NaN,62.0,NaN,NaN,NaN,2,9.9,003645,   NaN,56.7,     NaN,      NaN,NaN,11.1,NaN, NaN,0.170,NaN,NaN, NaN, NaN
20060214,003718,871930,32.488700,-122.989800,NaN,15.060,32.980,40.750,  NaN,NaN,0.185, NaN, NaN,16.300, NaN,   NaN,15.10,1017.94,91.60,NaN,315.0,NaN,5.2,NaN,334.4,NaN,10.1,NaN,NaN,0.185,NaN,58.0,NaN,NaN,NaN,2,9.7,003715,   NaN,56.1,     NaN,      NaN,NaN,10.4,NaN, NaN,0.182,NaN,NaN, NaN, NaN
20060214,003748,871960,32.489300,-122.988500,NaN,15.050,32.990,40.750,  NaN,NaN,0.190, NaN, NaN,16.400, NaN,   NaN,15.10,1017.89,91.50,NaN,311.0,NaN,6.9,NaN,326.1,NaN,13.5,NaN,NaN,0.190,NaN,59.0,NaN,NaN,NaN,2,10.0,003745,   NaN,55.5,     NaN,      NaN,NaN,11.1,NaN, NaN,0.172,NaN,NaN, NaN, NaN
20060214,003818,871990,32.490200,-122.987200,NaN,15.060,32.990,40.760,  NaN,NaN,0.238, NaN, NaN,16.400, NaN,   NaN,15.10,1018.01,91.60,NaN,305.0,NaN,6.2,NaN,327.3,NaN,12.1,NaN,NaN,0.238,NaN,59.0,NaN,NaN,NaN,2,9.9,003815,   NaN,58.1,     NaN,      NaN,NaN,10.8,NaN, NaN,1.501,NaN,NaN, NaN, NaN
20060214,003848,872020,32.490800,-122.985700,NaN,15.060,32.990,40.760,  NaN,NaN,0.184, NaN, NaN,16.400, NaN,   NaN,15.10,1017.87,91.60,NaN,314.0,NaN,5.2,NaN,330.1,NaN,10.1,NaN,NaN,0.184,NaN,60.0,NaN,NaN,NaN,2,9.9,003845,   NaN,56.6,     NaN,      NaN,NaN,11.1,NaN, NaN,0.171,NaN,NaN, NaN, NaN
20060214,003918,872050,32.491500,-122.984300,NaN,15.060,32.990,40.760,  NaN,NaN,0.197, NaN, NaN,16.400, NaN,   NaN,15.10,1018.05,91.50,NaN,312.0,NaN,6.4,NaN,324.7,NaN,12.5,NaN,NaN,0.197,NaN,60.0,NaN,NaN,NaN,2,9.8,003915,   NaN,57.6,     NaN,      NaN,NaN,11.2,NaN, NaN,0.424,NaN,NaN, NaN, NaN
20060214,003948,872080,32.492200,-122.983000,NaN,15.080,32.990,40.780,  NaN,NaN,0.199, NaN, NaN,16.400, NaN,   NaN,15.10,1017.98,91.50,NaN,305.0,NaN,6.2,NaN,328.0,NaN,12.1,NaN,NaN,0.199,NaN,58.0,NaN,NaN,NaN,2,9.8,003945,   NaN,54.9,     NaN,      NaN,NaN,10.9,NaN, NaN,0.385,NaN,NaN, NaN, NaN
20060214,004018,872110,32.492800,-122.981500,NaN,15.100,32.990,40.790,  NaN,NaN,0.197, NaN, NaN,16.400, NaN,   NaN,15.10,1017.79,91.50,NaN,310.0,NaN,5.8,NaN,326.4,NaN,11.3,NaN,NaN,0.197,NaN,62.0,NaN,NaN,NaN,2,9.8,004015,   NaN,56.6,     NaN,      NaN,NaN,11.1,NaN, NaN,0.636,NaN,NaN, NaN, NaN